Metropolis, IL

9:19 AM CDT on May 30, 2017 (GMT -0500)
Metropolis

Weather History for KM30 - February, 2013

Change the Weather History Date:

Thursday, February 21, 2013

  Actual Average (KPAH) Record (KPAH)
Temperature  
Mean Temperature 30 °F -  
Max Temperature 35 °F 54 °F 71 °F (1983)
Min Temperature 25 °F 32 °F 1 °F (1963)
Degree Days  
Heating Degree Days 35    
Moisture  
Dew Point 25 °F    
Average Humidity 80    
Maximum Humidity 100    
Minimum Humidity 55    
Precipitation  
Precipitation 0.81 in - - ()
Sea Level Pressure  
Sea Level Pressure 30.06 in    
Wind  
Wind Speed 6 mph (ENE)    
Max Wind Speed 15 mph    
Max Gust Speed 21 mph    
Visibility 8 miles    
Events Rain , Thunderstorm    
Averages and records for this station are not official NWS values.
T = Trace of Precipitation, MM = Missing Value Source: NWS Daily Summary

Daily Weather History Graph

Daily Weather History Graph

Search for Another Location

Airport or City:

Trip Planner

Search our weather history database for the weather conditions in past years. The results will help you decide how hot, cold, wet, or windy it might be!

Date:

Astronomy

Feb. 21, 2013 Rise Set
Actual Time 6:36 AM CST 5:41 PM CST
Civil Twilight 6:09 AM CST 6:07 PM CST
Nautical Twilight 5:39 AM CST 6:38 PM CST
Astronomical Twilight 5:09 AM CST 7:08 PM CST
Moon 1:59 PM CST (2/21) 3:37 AM CST (2/21)
Length of Visible Light 11h 57m
Length of Day
11h 05m
Waxing Gibbous, 84% of the Moon is Illuminated
Feb 21
Waxing Gibbous
Feb 25
Full
Mar 4
Last Quarter
Mar 11
New
Mar 19
First Quarter

Hourly Weather History & Observations

Time (CST) Temp. Windchill Dew Point Humidity Pressure Visibility Wind Dir Wind Speed Gust Speed Precip Events Conditions
12:15 AM 25.9 °F 20.3 °F 18.9 °F 75% 30.29 in 10.0 mi NNE 4.6 mph - N/A   Clear
12:35 AM 25.7 °F 20.1 °F 19.0 °F 76% 30.27 in 10.0 mi NE 4.6 mph - N/A   Clear
12:55 AM 25.5 °F 18.7 °F 19.0 °F 76% 30.27 in 10.0 mi NNE 5.8 mph - N/A   Clear
1:15 AM 26.1 °F 21.9 °F 19.0 °F 75% 30.28 in 10.0 mi NE 3.5 mph - N/A   Clear
1:35 AM 26.2 °F 20.7 °F 18.9 °F 74% 30.27 in 10.0 mi NE 4.6 mph - N/A   Clear
1:55 AM 26.4 °F - 18.9 °F 73% 30.28 in 10.0 mi Calm Calm - N/A   Clear
2:15 AM 26.6 °F 21.2 °F 19.0 °F 73% 30.27 in 10.0 mi NE 4.6 mph - N/A   Clear
2:35 AM 26.6 °F 21.2 °F 18.5 °F 71% 30.27 in 10.0 mi ENE 4.6 mph - N/A   Clear
2:55 AM 26.2 °F 20.7 °F 18.5 °F 73% 30.27 in 10.0 mi NE 4.6 mph - N/A   Clear
3:15 AM 26.2 °F 20.7 °F 18.5 °F 73% 30.26 in 10.0 mi NE 4.6 mph - N/A   Clear
3:35 AM 26.2 °F 20.7 °F 18.5 °F 73% 30.26 in 10.0 mi NE 4.6 mph - N/A   Clear
3:55 AM 26.1 °F 21.9 °F 18.9 °F 74% 30.25 in 10.0 mi ENE 3.5 mph - N/A   Scattered Clouds
4:15 AM 26.4 °F 19.8 °F 19.0 °F 74% 30.25 in 10.0 mi NE 5.8 mph - N/A   Scattered Clouds
4:35 AM 26.6 °F 21.2 °F 18.3 °F 71% 30.26 in 10.0 mi ENE 4.6 mph - N/A   Mostly Cloudy
5:15 AM 26.6 °F 21.2 °F 18.0 °F 70% 30.26 in 10.0 mi East 4.6 mph - N/A   Scattered Clouds
5:35 AM 26.6 °F 20.0 °F 18.1 °F 70% 30.24 in 10.0 mi ENE 5.8 mph - N/A   Scattered Clouds
5:55 AM 26.6 °F 19.1 °F 18.1 °F 70% 30.21 in 10.0 mi ENE 6.9 mph - N/A   Mostly Cloudy
6:15 AM 27.1 °F 18.9 °F 17.6 °F 67% 30.21 in 10.0 mi ENE 8.1 mph - N/A   Overcast
6:35 AM 27.0 °F 17.3 °F 17.6 °F 68% 30.20 in 10.0 mi East 10.4 mph - N/A   Overcast
6:55 AM 26.6 °F 17.5 °F 17.4 °F 68% 30.20 in 10.0 mi ENE 9.2 mph - N/A   Scattered Clouds
7:15 AM 27.3 °F 19.1 °F 17.6 °F 67% 30.21 in 10.0 mi East 8.1 mph - N/A   Clear
7:35 AM 28.2 °F 18.9 °F 17.6 °F 64% 30.20 in 10.0 mi ENE 10.4 mph - N/A   Clear
7:55 AM 28.8 °F 19.5 °F 17.6 °F 63% 30.20 in 10.0 mi East 10.4 mph 18.4 mph N/A   Clear
8:15 AM 28.9 °F 21.1 °F 17.6 °F 63% 30.21 in 10.0 mi East 8.1 mph - N/A   Mostly Cloudy
8:35 AM 30.4 °F 20.5 °F 18.1 °F 60% 30.19 in 10.0 mi East 12.7 mph 18.4 mph N/A   Overcast
8:55 AM 31.1 °F 23.1 °F 18.1 °F 59% 30.19 in 10.0 mi East 9.2 mph 19.6 mph N/A   Overcast
9:15 AM 31.6 °F 21.6 °F 18.0 °F 57% 30.18 in 10.0 mi East 13.8 mph 19.6 mph N/A   Overcast
9:35 AM 32.7 °F 23.0 °F 19.0 °F 57% 30.16 in 10.0 mi East 13.8 mph - N/A   Mostly Cloudy
9:55 AM 33.3 °F 24.6 °F 18.5 °F 55% 30.14 in 10.0 mi East 11.5 mph 18.4 mph N/A   Mostly Cloudy
10:15 AM 33.1 °F 24.4 °F 18.5 °F 55% 30.14 in 10.0 mi East 11.5 mph 19.6 mph N/A   Overcast
10:35 AM 33.3 °F 26.4 °F 18.9 °F 56% 30.16 in 10.0 mi East 8.1 mph - N/A Rain Light Rain
10:55 AM 33.6 °F 25.0 °F 19.6 °F 56% 30.15 in 10.0 mi East 11.5 mph 16.1 mph N/A   Overcast
11:15 AM 33.8 °F 24.8 °F 20.1 °F 57% 30.10 in 10.0 mi East 12.7 mph 20.7 mph N/A   Overcast
11:35 AM 33.4 °F 24.3 °F 21.7 °F 62% 30.07 in 10.0 mi ENE 12.7 mph 20.7 mph N/A   Light Drizzle
11:55 AM 33.8 °F 24.8 °F 21.0 °F 60% 30.05 in 10.0 mi East 12.7 mph 18.4 mph N/A   Overcast
12:15 PM 34.2 °F 26.8 °F 21.2 °F 59% 30.01 in 10.0 mi ENE 9.2 mph 16.1 mph N/A   Overcast
12:35 PM 34.2 °F 24.4 °F 21.4 °F 60% 29.97 in 10.0 mi East 15.0 mph 20.7 mph N/A Rain Light Rain
12:55 PM 34.2 °F 26.2 °F 21.9 °F 61% 29.96 in 10.0 mi East 10.4 mph 19.6 mph N/A Rain Light Rain
1:15 PM 34.0 °F 28.0 °F 23.2 °F 65% 29.95 in 10.0 mi ENE 6.9 mph 17.3 mph N/A Rain Light Rain
1:35 PM 33.3 °F 26.4 °F 25.5 °F 73% 29.97 in 10.0 mi East 8.1 mph - 0.01 in Rain Rain
1:55 PM 33.1 °F 30.0 °F 26.6 °F 77% 30.03 in 7.0 mi ESE 3.5 mph - 0.05 in Rain Rain
2:15 PM 32.9 °F 28.5 °F 27.3 °F 80% 30.05 in 4.0 mi North 4.6 mph - 0.06 in Rain Rain
2:35 PM 32.5 °F 26.2 °F 29.1 °F 87% 30.03 in 7.0 mi NNE 6.9 mph - 0.11 in Rain Rain
2:55 PM 32.4 °F 26.9 °F 29.7 °F 90% 30.02 in 10.0 mi NNE 5.8 mph - 0.14 in Rain Rain
3:15 PM 32.2 °F 25.0 °F 29.3 °F 89% 29.99 in 10.0 mi NE 8.1 mph - 0.01 in Rain Rain
3:35 PM 32.2 °F 25.0 °F 30.2 °F 92% 29.99 in 5.0 mi NNE 8.1 mph - 0.08 in Rain Rain
3:55 PM 32.2 °F 25.0 °F 30.7 °F 94% 29.97 in 2.5 mi NE 8.1 mph - 0.16 in Rain Heavy Rain
4:15 PM 32.2 °F 24.4 °F 31.1 °F 96% 29.95 in 3.0 mi ENE 9.2 mph - 0.09 in Rain , Thunderstorm Rain
4:35 PM 32.4 °F 26.0 °F 31.8 °F 98% 29.91 in 3.0 mi East 6.9 mph - 0.17 in Rain Rain
4:55 PM 32.5 °F 25.5 °F 32.0 °F 98% 29.87 in 3.0 mi East 8.1 mph 16.1 mph 0.22 in Rain Light Rain
5:15 PM 32.5 °F 28.1 °F 32.0 °F 98% 29.87 in 3.0 mi ENE 4.6 mph - 0.03 in Rain , Thunderstorm Thunderstorms and Rain
5:35 PM 32.9 °F 28.5 °F 32.2 °F 97% 29.87 in 7.0 mi East 4.6 mph - 0.04 in Rain Rain
5:55 PM 33.1 °F 26.9 °F 32.5 °F 98% 29.88 in 7.0 mi East 6.9 mph - 0.05 in Rain Rain
6:15 PM 33.1 °F - 32.9 °F 99% 29.91 in 4.0 mi Calm Calm - 0.04 in Rain Light Rain
6:35 PM 33.1 °F 30.0 °F 32.9 °F 99% 29.89 in 7.0 mi East 3.5 mph - 0.05 in   Drizzle
6:55 PM 33.1 °F 30.0 °F 33.1 °F 100% 29.88 in 3.0 mi East 3.5 mph - 0.11 in Rain , Thunderstorm Light Thunderstorms and Rain
7:15 PM 33.1 °F 30.0 °F 33.1 °F 100% 29.87 in 5.0 mi East 3.5 mph - N/A Rain Rain
7:35 PM 33.3 °F 30.2 °F 33.3 °F 100% 29.88 in 5.0 mi East 3.5 mph - 0.01 in Rain Rain
7:55 PM 33.4 °F - 33.4 °F 100% 29.91 in 4.0 mi Calm Calm - 0.05 in Rain Heavy Rain
8:15 PM 33.3 °F - 33.3 °F 100% 29.88 in 5.0 mi Calm Calm - 0.02 in Rain Rain
8:35 PM 33.4 °F - 33.4 °F 100% 29.88 in 7.0 mi Calm Calm - 0.02 in Rain Rain
8:55 PM 33.4 °F 30.4 °F 33.4 °F 100% 29.87 in 7.0 mi East 3.5 mph - 0.03 in   Drizzle
9:15 PM 33.4 °F 30.4 °F 33.4 °F 100% 29.85 in 7.0 mi East 3.5 mph - N/A Rain Light Rain
9:35 PM 33.8 °F 29.6 °F 33.8 °F 100% 29.83 in 7.0 mi East 4.6 mph - N/A   Overcast
9:55 PM 34.0 °F 31.0 °F 34.0 °F 100% 29.83 in 7.0 mi East 3.5 mph - N/A   Overcast
10:15 PM 34.2 °F 31.2 °F 34.2 °F 100% 29.84 in 7.0 mi ESE 3.5 mph - N/A   Overcast
10:35 PM 34.3 °F 30.2 °F 34.3 °F 100% 29.83 in 7.0 mi ESE 4.6 mph - N/A   Drizzle
10:55 PM 34.7 °F - 34.7 °F 100% 29.83 in 7.0 mi Calm Calm - N/A   Light Drizzle
11:15 PM 35.2 °F 32.4 °F 35.2 °F 100% 29.83 in 5.0 mi East 3.5 mph - N/A   Drizzle
11:35 PM 35.4 °F 32.6 °F 35.4 °F 100% 29.83 in 4.0 mi East 3.5 mph - N/A   Light Drizzle
11:55 PM 35.6 °F - 35.6 °F 100% 29.81 in 3.0 mi Calm Calm - N/A   Overcast